Tracking 33165 objects as of 8-Feb-2026
HD Live streaming from Space Station
objects crossing your sky now

STARLINK-35892

Track STARLINK-35892 now!
10-day predictions
STARLINK-35892 is classified as:


NORAD ID: 67115
Int'l Code: 2025-299P
Perigee: 450.1 km
Apogee: 452.1 km
Inclination: 43.0 °
Period: 93.5 minutes
Semi major axis: 6822 km
RCS: Unknown
Launch date: December 15, 2025
Source: United States (US)
Launch site: AIR FORCE EASTERN TEST RANGE (AFETR)
Your satellite tracking list
Your tracking list is empty




NASA's NSSDC Master Catalog

Two Line Element Set (TLE):
1 67115U 25299P   26038.25865549  .00079576  00000-0  18908-2 0  9992
2 67115  43.0011 344.1935 0001421 259.3228 100.7468 15.40725388  8422
Source of the keplerian elements: AFSPC